This demonstration page uses our WeatherBlox Daily Observations layout. Learn more.

Left ArrowRight Arrow

39.01783, -85.05884

Hourly Observations for October 23, 2016

Temp ( °F °C ) Dew Point ( °F °C ) Humidity (%) Winds ( mph kmh ) Pressure ( in mb ) Visibility ( mi km ) Precip ( " mm )
12:52 am 00:52 Cloudy 46 7.8 41 5 83 83 Calm 30.10 1019 10 16 0.00 0.00
1:52 am 01:52 Cloudy 46 7.8 41 5 83 83 S 3 6 30.10 1019 10 16 0.00 0.00
2:52 am 02:52 Cloudy 47 8.3 42 5.6 83 83 SSW 3 6 30.11 1020 10 16 0.00 0.00
3:52 am 03:52 Cloudy 47 8.3 41 5 80 80 SSW 5 7 30.11 1020 10 16 0.00 0.00
4:52 am 04:52 Partly Cloudy 46 7.8 40 4.4 79 79 SSW 6 9 30.11 1020 10 16 0.00 0.00
5:52 am 05:52 Mostly Clear 46 7.8 40 4.4 79 79 SSW 8 13 30.11 1020 10 16 0.00 0.00
6:52 am 06:52 Clear 45 7.2 40 4.4 83 83 SSW 5 7 30.12 1020 10 16 0.00 0.00
7:52 am 07:52 Clear 45 7.2 39 3.9 80 80 SSW 6 9 30.12 1020 10 16 0.00 0.00
8:52 am 08:52 Sunny 46 7.8 40 4.4 79 79 SSW 8 13 30.13 1020 10 16 0.00 0.00
9:52 am 09:52 Sunny 51 10.6 42 5.6 71 71 SSW 9 15 30.13 1020 10 16 0.00 0.00
10:52 am 10:52 Sunny 56 13.3 44 6.7 65 65 SSW 12 19 30.12 1020 10 16 0.00 0.00
11:52 am 11:52 Sunny 61 16.1 45 7.2 56 56 SW 9 15 30.11 1020 10 16 0.00 0.00
12:52 pm 12:52 Mostly Sunny 66 18.9 47 8.3 50 50 SSW 10 17 30.08 1019 10 16 0.00 0.00
1:52 pm 13:52 Mostly Sunny 68 20 48 8.9 49 49 SSW 14 22 30.05 1018 10 16 0.00 0.00
2:52 pm 14:52 Sunny 72 22.2 49 9.4 44 44 SW 9 15 30.03 1017 10 16 0.00 0.00
3:52 pm 15:52 Sunny 72 22.2 48 8.9 43 43 WSW 10 17 30.01 1016 10 16 0.00 0.00
4:52 pm 16:52 Sunny 71 21.7 49 9.4 46 46 SSW 16 26 29.99 1016 10 16 0.00 0.00
5:52 pm 17:52 Mostly Sunny 70 21.1 48 8.9 46 46 SW 13 20 29.98 1015 10 16 0.00 0.00
6:52 pm 18:52 Mostly Clear 69 20.6 47 8.3 45 45 SW 13 20 29.98 1015 10 16 0.00 0.00
7:52 pm 19:52 Mostly Clear 66 18.9 48 8.9 52 52 SW 9 15 29.98 1015 10 16 0.00 0.00
8:52 pm 20:52 Clear 66 18.9 48 8.9 52 52 SW 9 15 29.99 1016 10 16 0.00 0.00
9:52 pm 21:52 Clear 65 18.3 47 8.3 52 52 WSW 9 15 30.01 1016 10 16 0.00 0.00
10:52 pm 22:52 Clear 64 17.8 47 8.3 54 54 WSW 7 11 30.03 1017 10 16 0.00 0.00
11:52 pm 23:52 Clear 63 17.2 47 8.3 56 56 WSW 9 15 30.03 1017 10 16 0.00 0.00

Powered by AerisWeather